Погода в Краснинском

Россия / Челябинская область     53°55′04″N   59°40′01″E
темп.,
°C
ветер,
м/с
пор.,
м/с
влажн.,
%
обл.,
%
осадки,
мм/ч
давл.,
гПа
погр.,
м
27 января, чт
чт2723:00−16ююз412915 0.0 1024202
02:00−15юз5149439 0.0 1024229
05:00−14юз51493100 0.0 1024231
08:00−15юз4995100 0.0 1025131
11:00−12юз410925 0.0 1025201
14:00−10юз410895 0.0 1025274
17:00−13юз23945 0.0 102635
20:00−15юз359619 0.0 102750
28 января, пт
пт2823:00−17зюз3298100 0.0 102721
02:00−18з2298100 0.0 102712
05:00−19з119978 0.0 10279
08:00−20зсз1110097 0.0 10279
11:00−17ссз11988 0.0 102718
14:00−11юв119291 0.0 102543
17:00−15св119796 0.0 102510
20:00−16с1198100 0.0 102610
29 января, сб
сб2923:00−15с2298100 0.1 102524
02:00−16с2299100 0.1 102418
05:00−16с22100100 0.1 102426
08:00−16ссв2399100 0.0 102352
11:00−14св2397100 0.1 1023107
14:00−12св2292100 0.0 1021151
17:00−13с1196100 0.0 102110
20:00−15сз1197100 0.0 10219
30 января, вс
вс3023:00−16з1196100 0.0 10209
02:00−17зюз2296100 0.0 101918
05:00−16зюз239588 0.0 101849
08:00−15зюз249098 0.0 101760
11:00−13зюз368846 0.0 1017102
14:00−9юз49909 0.0 1015212
17:00−10ююз4109397 0.0 1015163
20:00−8ююз51393100 0.0 1015271
31 января, пн
пн3123:00−6ююз51395100 0.0 1014391
02:00−5ююз61391100 0.0 1014430
05:00−5ююз61391100 0.0 1014413
08:00−5ююз61392100 0.0 1015418
11:00−7ююз6129286 0.0 1017352
14:00−6юз61291100 0.0 1017521
17:00−6ююз61293100 0.0 1018387
20:00−6ююз61394100 0.0 1019380